Вернуться в каталог

ONEWEB-0427

АктивенСвязьPO
NORAD 50499·PAYLOAD·🇬🇧 United Kingdom

Запущен Dec 27, 2021 с Baikonur Cosmodrome

Loading…

Ближайшие Пролёты (ближайшие 24 часа)

TLE

СвежийSource: CelesTrak SupGP

Эпоха: Sep 14, 2026, 23:33 UTC

1 50499C 21132AG  26257.98139307  .00001388  00000+0  35239-2 0  2578
2 50499  87.9167 317.5995 0002009 105.4151 342.5419 13.18682398    12

Отслеживайте ONEWEB-0427 в реальном времени с AllMySat

Download on the App Store